Regional Weather Roundup
Issued by NWS Sterling, VA

Home | Current Version | Previous Version | Graphics & Text | Print | Product List | Glossary On
Versions: 1 2 3 4 5 6 7 8 9 10 11 12 13 14 15 16 17 18 19 20 21 22 23 24 25 26 27 28 29 30 31 32 33 34 35 36 37 38 39 40 41 42 43 44 45 46 47 48 49 50
000
ASUS41 KLWX 260010
RWRLWX

REGIONAL WEATHER ROUNDUP
NATIONAL WEATHER SERVICE BALTIMORE MD/WASHINGTON DC
700 PM EST SUN JAN 25 2015

Note: "FAIR" indicates few or no clouds below 12,000 feet
with no significant weather and/or obstructions to visibility.
 TC=TEMPERATURE CELSIUS

 * =Non NWS site. Station does not report precipitation (e.g. rain,
    snow, etc.), thunder, or fog.

DCZ001-MDZ009-015-VAZ040>042-051-053>054-260100-
WASHINGTON METRO

CITY           SKY/WX    TMP DP  RH WIND       PRES   REMARKS
WASHINGTON NAT CLOUDY    48  30  49 SE3       29.86R
DULLES         CLOUDY    43  31  62 CALM      29.84R
ANDREWS AFB    CLOUDY    44  33  64 E3        29.85R
FT BELVOIR     CLOUDY    43  34  69 CALM      29.85R
QUANTICO       PTCLDY    41  33  73 CALM      29.86R
COLLEGE PARK*  CLOUDY    43  34  70 CALM      29.85S
LEESBURG*      CLOUDY    43  36  75 CALM      29.85R
MANASSAS*      CLOUDY    43  37  81 CALM      29.84R
GAITHERSBURG*  CLOUDY    41  30  65 CALM      29.88R

$$

MDZ006>007-011-014-260100-
BALTIMORE METRO

CITY           SKY/WX    TMP DP  RH WIND       PRES   REMARKS
BWI AIRPORT    CLOUDY    44  31  60 E5        29.86R
MD SCIENCE CTR   N/A     44  33  65 MISG      29.86R
ANNAPOLIS      CLOUDY    40  34  79 SE6       29.87R
FORT MEADE*    CLOUDY    41  32  70 CALM      29.88R

$$

MDZ012-015-019>023-260100-
MARYLAND EASTERN SHORE

CITY           SKY/WX    TMP DP  RH WIND       PRES   REMARKS
OCEAN CITY     PTCLDY    40  32  73 SW3       29.90R
SALISBURY      PTCLDY    40  30  67 CALM      29.89R
BAY BRIDGE AP*   N/A     43  32  65 SE6       29.88R
CAMBRIDGE*     CLOUDY    43  32  65 SE6       29.88R
EASTON*        CLOUDY    46  32  57 S6        29.91R

$$

MDZ017>025-260100-
SOUTHERN MARYLAND

CITY           SKY/WX    TMP DP  RH WIND       PRES   REMARKS
PATUXENT RIVER PTCLDY    41  30  65 SE5       29.87R
ST INIGOES     CLEAR     44  29  55 SE8       29.86R
LEONARDTOWN*   CLOUDY    43  32  65 SE6       29.88R

$$

MDZ003>005-260100-
NORTH CENTRAL MARYLAND

CITY           SKY/WX    TMP DP  RH WIND       PRES   REMARKS
FREDERICK*     CLOUDY    41  36  81 CALM      29.88R
HAGERSTOWN APT LGT RAIN  38  33  82 E5        29.84R
WESTMINSTER*   LGT RAIN  39  36  87 CALM      29.85R

$$

MDZ501>502-260100-
WESTERN MARYLAND

CITY           SKY/WX    TMP DP  RH WIND       PRES   REMARKS
OAKLAND*       FOG       32 N/A N/A SE5       29.73R VSB 1/2
CUMBERLAND*    CLOUDY    39  36  87 N3        29.85R

$$

VAZ025>031-260100-
SHENANDOAH VALLEY

CITY           SKY/WX    TMP DP  RH WIND       PRES   REMARKS
WINCHESTER*    CLOUDY    39  30  70 CALM      29.82R
FRONT ROYAL*   CLOUDY    37  32  81 CALM      29.80S
LURAY*         FAIR      37  34  87 CALM      29.81R
NEW MARKET*    FAIR      34  32  91 CALM      29.80R
STAUNTON*      CLOUDY    41  32  70 CALM      29.80S
WAYNESBORO*    FAIR      38  32  77 CALM      29.78S

$$

WVZ021-048>050-054>055-260100-
EASTERN WEST VIRGINIA PANHANDLE

CITY           SKY/WX    TMP DP  RH WIND       PRES   REMARKS
MARTINSBURG    LGT RAIN  40  36  86 NE3       29.83R
PETERSBURG*    CLOUDY    39  31  73 CALM      29.80R

$$

VAZ036>039-050-260100-
CENTRAL FOOTHILLS

CITY           SKY/WX    TMP DP  RH WIND       PRES   REMARKS
CHARLOTTESVILL MOCLDY    43  32  65 CALM      29.81R
CULPEPER*      CLOUDY    39  36  87 CALM      29.84R
ORANGE*        MOCLDY    36  34  93 CALM      29.85R
GORDONSVILLE*  FAIR      37  33  86 CALM      29.82R
WARRENTON*     CLOUDY    40  37  87 CALM      29.83R

$$

VAZ055>057-260100-
NORTH AND CENTRAL PIEDMONT

CITY           SKY/WX    TMP DP  RH WIND       PRES   REMARKS
FREDERICKSBRG* CLOUDY    41  35  79 SE3       29.84R
STAFFORD*      CLOUDY    40  32  74 CALM      29.88S

$$

NCZ024-NYZ072-PAZ021-071-VAZ022-071-260100-
OTHER REGIONAL OBSERVATIONS

CITY           SKY/WX    TMP DP  RH WIND       PRES   REMARKS
NEW YORK CITY  PTCLDY    36   8  31 VRB3      29.93R
PHILADELPHIA   CLOUDY    42  32  67 N5        29.90R
PITTSBURGH     LGT SNOW  31  30  96 NE7       29.78S FOG
ROANOKE        MOCLDY    47  29  49 S3        29.79R
RICHMOND       MOCLDY    42  35  76 SE6       29.84R
RALEIGH        PTCLDY    47  32  56 S5        29.84R

$$

ANZ530>537-260100-
MARINE OBSERVATIONS

STATION/POSITION TIME  TEMP    WIND        PRES
                       AIR SEA DIR/SP/G
                 (UTC) (F)     (DEG/KT/KT) (MB)
THOMAS PT LIGHT  0000   41 38  150/  8/  9 1012.7R
BALT KEY BRIDGE  0000   43     100/  6/  6 1011.3R
COVE POINT       0000   39     180/ 10/ 11 1011.4R
LEWISETTA        0000   43 39  170/  7/  9 1011.1S
SOLOMONS ISLAND  0000      39                N/A
PINEY POINT      0000          160/ 10/ 11   N/A

$$




USA.gov is the U.S. government's official web portal to all federal, state and local government web resources and services.